Flag for U.S.A. Weather past 2 weeks in Flint, Michigan, U.S.A.

Now
65 °F

Mostly cloudy.


Feels Like: 65 °F
Forecast: 63 / 78 °F
Wind: 7 mph from Southwest

Location: Bishop International Airport

Current Time: Aug 3, 2015 at 2:47:10 AM

Latest Report: Aug 3, 2015 at 1:53 AM


Visibility: 10 mi

Pressure: 29.67 "Hg

Humidity: 87%

Dew point: 61 °F

Location of FlintLocation

Historic Weather in Flint — Graph

°F

Flint temperature yesterday

Maximum temperature yesterday: 93 °F (at 3:53 PM)
Minimum temperature yesterday: 58 °F (at 2:53 AM)
Average temperature yesterday: 75 °F

Past Weeks' High & Low Weather Summary

 TemperatureHumidityPressure
High93 °F (Aug 2, 3:53 PM)93% (Jul 26, 6:59 AM)30.05 "Hg (Jul 26, 6:59 AM)
Low56 °F (Jul 23, 5:53 AM)27% (Aug 1, 3:53 PM)29.61 "Hg (Aug 2, 6:53 PM)
Average75 °F62%29.90 "Hg
* Reported Jul 19 1:53 AM — Aug 3 1:53 AM, Flint, Weather by CustomWeather, © 2015

Note: Actual official high and low records may vary slightly from our data, if they occured in-between our weather recording intervals... More about our weather records

Advertising

Flint weather history for previous 24 hours

 ConditionsComfort  
Time TempWeatherWind HumidityBarometerVisibility
1:53 AM
Mon, Aug 3
65 °FMostly cloudy.7 mph87%29.67 "Hg10 mi
12:53 AM65 °FThundershowers. Mostly cloudy.6 mph85%29.65 "Hg10 mi
11:53 PM
Sun, Aug 2
63 °FThundershowers. Fog.24 mph90%29.63 "Hg5 mi
10:59 PM63 °FThunderstorms. Fog.7 mph90%29.76 "Hg2 mi
9:56 PM64 °FStrong thunderstorms. Mostly cloudy.17 mph81%29.78 "Hg1 mi
8:53 PM69 °FMostly cloudy.16 mph70%29.70 "Hg10 mi
7:53 PM87 °FScattered clouds.14 mph46%29.61 "Hg10 mi
6:53 PM88 °FSunny.14 mph43%29.61 "Hg10 mi
5:53 PM91 °FSunny.21 mph38%29.64 "Hg10 mi
4:53 PM89 °FSunny.14 mph36%29.67 "Hg10 mi
3:53 PM93 °FSunny.22 mph33%29.70 "Hg10 mi
2:53 PM92 °FSunny.18 mph40%29.69 "Hg10 mi
1:53 PM90 °FSunny.16 mph41%29.74 "Hg10 mi
12:53 PM88 °FSunny.17 mph43%29.76 "Hg10 mi
11:53 AM85 °FSunny.15 mph53%29.78 "Hg10 mi
10:53 AM81 °FSunny.13 mph65%29.80 "Hg10 mi
9:53 AM77 °FSunny.10 mph66%29.81 "Hg10 mi
8:53 AM73 °FSunny.7 mph71%29.83 "Hg10 mi
7:53 AM68 °FSunny.7 mph73%29.85 "Hg10 mi
6:53 AM65 °FClear.6 mph73%29.85 "Hg10 mi
5:53 AM64 °FClear.6 mph73%29.85 "Hg10 mi
4:53 AM61 °FClear.3 mph75%29.86 "Hg10 mi
3:53 AM59 °FClear.3 mph78%29.86 "Hg10 mi
2:53 AM58 °FClear.3 mph81%29.86 "Hg10 mi
Weather by CustomWeather, © 2015

See weather overviewHow to use our weather pages